• în România
  • Lista ţărilor
  • Pe 7 zile
  • Temperatura apei
  • Hartă satelitară
  • Meteo pe hartă
  • Widget-uri
  • user-avatar
    Intrare

    Meteo pe oră la Brest

    Astăzi, 22 Septembrie, Sâmbătă

    Timp Temperatura Precipitaţii Vânt Presiune Umiditate
    00:00 +20°C° 0 mm 5 m/s 745 mmHg 64%
    01:00 +20°C° 0 mm 5 m/s 745 mmHg 64%
    02:00 +19°C° 0 mm 5 m/s 745 mmHg 64%
    03:00 +19°C° 0.1 mm 5 m/s 745 mmHg 65%
    04:00 +19°C° 0.1 mm 5 m/s 745 mmHg 67%
    05:00 +17°C° 0.1 mm 5 m/s 745 mmHg 69%
    06:00 +17°C° 0.6 mm 5 m/s 746 mmHg 74%
    07:00 +16°C° 0.6 mm 6 m/s 747 mmHg 80%
    08:00 +15°C° 0.6 mm 6 m/s 748 mmHg 85%
    09:00 +15°C° 0.3 mm 6 m/s 748 mmHg 81%
    10:00 +14°C° 0.3 mm 5 m/s 749 mmHg 76%
    11:00 +14°C° 0.3 mm 5 m/s 750 mmHg 72%
    12:00 +14°C° 0 mm 4 m/s 750 mmHg 68%
    13:00 +14°C° 0 mm 4 m/s 750 mmHg 65%
    14:00 +15°C° 0 mm 4 m/s 750 mmHg 61%
    15:00 +15°C° 0 mm 4 m/s 750 mmHg 60%
    16:00 +15°C° 0 mm 4 m/s 750 mmHg 60%
    17:00 +15°C° 0 mm 4 m/s 749 mmHg 59%
    18:00 +14°C° 0.1 mm 4 m/s 750 mmHg 64%
    19:00 +13°C° 0.1 mm 3 m/s 750 mmHg 68%
    20:00 +12°C° 0.1 mm 3 m/s 750 mmHg 72%
    21:00 +11°C° 0 mm 3 m/s 750 mmHg 74%
    22:00 +11°C° 0 mm 3 m/s 750 mmHg 76%
    23:00 +10°C° 0 mm 3 m/s 750 mmHg 77%

    Mâine, 23 Septembrie, Duminică

    Timp Temperatura Precipitaţii Vânt Presiune Umiditate
    00:00 +10°C° 0 mm 3 m/s 750 mmHg 77%
    01:00 +10°C° 0 mm 3 m/s 750 mmHg 77%
    02:00 +9°C° 0 mm 3 m/s 750 mmHg 77%
    03:00 +9°C° 0 mm 3 m/s 750 mmHg 77%
    04:00 +9°C° 0 mm 3 m/s 750 mmHg 78%
    05:00 +9°C° 0 mm 3 m/s 750 mmHg 78%
    06:00 +8°C° 0 mm 4 m/s 749 mmHg 75%
    07:00 +10°C° 0 mm 4 m/s 749 mmHg 73%
    08:00 +11°C° 0 mm 4 m/s 749 mmHg 70%
    09:00 +12°C° 0 mm 5 m/s 749 mmHg 64%
    10:00 +14°C° 0 mm 5 m/s 749 mmHg 59%
    11:00 +16°C° 0 mm 6 m/s 749 mmHg 53%
    12:00 +16°C° 0.1 mm 6 m/s 749 mmHg 53%
    13:00 +16°C° 0.1 mm 6 m/s 749 mmHg 52%
    14:00 +16°C° 0.1 mm 6 m/s 748 mmHg 52%
    15:00 +15°C° 0 mm 5 m/s 748 mmHg 55%
    16:00 +15°C° 0 mm 5 m/s 748 mmHg 59%
    17:00 +14°C° 0 mm 4 m/s 748 mmHg 62%
    18:00 +14°C° 0 mm 3 m/s 747 mmHg 66%
    19:00 +13°C° 0 mm 3 m/s 747 mmHg 70%
    20:00 +13°C° 0 mm 2 m/s 747 mmHg 74%
    21:00 +13°C° 0.1 mm 2 m/s 746 mmHg 76%
    22:00 +12°C° 0.1 mm 2 m/s 746 mmHg 77%
    23:00 +12°C° 0.1 mm 2 m/s 745 mmHg 79%

    Poimâine, 24 Septembrie, Luni

    Timp Temperatura Precipitaţii Vânt Presiune Umiditate
    00:00 +11°C° 2 mm 3 m/s 743 mmHg 83%
    01:00 +11°C° 2 mm 4 m/s 742 mmHg 87%
    02:00 +11°C° 2 mm 4 m/s 740 mmHg 91%
    03:00 +10°C° 4.7 mm 5 m/s 738 mmHg 92%
    04:00 +10°C° 4.7 mm 6 m/s 736 mmHg 93%
    05:00 +10°C° 4.7 mm 6 m/s 735 mmHg 93%
    06:00 +11°C° 2.1 mm 7 m/s 734 mmHg 92%
    07:00 +11°C° 2.1 mm 7 m/s 734 mmHg 90%
    08:00 +12°C° 2.1 mm 8 m/s 733 mmHg 88%
    09:00 +11°C° 1.3 mm 9 m/s 734 mmHg 87%
    10:00 +8°C° 1.3 mm 11 m/s 736 mmHg 85%
    11:00 +7°C° 1.3 mm 12 m/s 737 mmHg 83%
    12:00 +8°C° 0.3 mm 11 m/s 738 mmHg 79%
    13:00 +9°C° 0.3 mm 11 m/s 740 mmHg 75%
    14:00 +11°C° 0.3 mm 10 m/s 742 mmHg 71%
    15:00 +11°C° 0.2 mm 10 m/s 743 mmHg 68%
    16:00 +11°C° 0.2 mm 9 m/s 743 mmHg 65%
    17:00 +11°C° 0.2 mm 8 m/s 744 mmHg 63%
    18:00 +10°C° 0 mm 8 m/s 745 mmHg 66%
    19:00 +8°C° 0 mm 9 m/s 745 mmHg 69%
    20:00 +7°C° 0 mm 9 m/s 746 mmHg 72%
    21:00 +7°C° 0.1 mm 9 m/s 747 mmHg 72%
    22:00 +7°C° 0.1 mm 9 m/s 748 mmHg 71%
    23:00 +6°C° 0.1 mm 9 m/s 748 mmHg 71%

    25 Septembrie, Marţi

    Timp Temperatura Precipitaţii Vânt Presiune Umiditate
    00:00 +6°C° 0 mm 8 m/s 749 mmHg 71%
    01:00 +5°C° 0 mm 8 m/s 750 mmHg 71%
    02:00 +5°C° 0 mm 7 m/s 751 mmHg 71%
    03:00 +5°C° 0 mm 7 m/s 751 mmHg 71%
    04:00 +5°C° 0 mm 7 m/s 752 mmHg 70%
    05:00 +4°C° 0 mm 7 m/s 753 mmHg 70%
    06:00 +5°C° 0 mm 7 m/s 753 mmHg 70%
    07:00 +5°C° 0 mm 7 m/s 753 mmHg 69%
    08:00 +5°C° 0 mm 7 m/s 754 mmHg 69%
    09:00 +6°C° 0.1 mm 7 m/s 754 mmHg 64%
    10:00 +9°C° 0.1 mm 8 m/s 755 mmHg 60%
    11:00 +10°C° 0.1 mm 8 m/s 755 mmHg 55%
    12:00 +10°C° 0.1 mm 8 m/s 755 mmHg 52%
    13:00 +11°C° 0.1 mm 8 m/s 755 mmHg 49%
    14:00 +11°C° 0.1 mm 7 m/s 755 mmHg 46%
    15:00 +11°C° 0 mm 7 m/s 755 mmHg 47%
    16:00 +11°C° 0 mm 6 m/s 755 mmHg 49%
    17:00 +10°C° 0 mm 5 m/s 755 mmHg 50%
    18:00 +10°C° 0 mm 5 m/s 754 mmHg 51%
    19:00 +9°C° 0 mm 6 m/s 754 mmHg 52%
    20:00 +8°C° 0 mm 6 m/s 753 mmHg 52%
    21:00 +8°C° 0.6 mm 6 m/s 753 mmHg 60%
    22:00 +6°C° 0.6 mm 7 m/s 752 mmHg 68%
    23:00 +6°C° 0.6 mm 8 m/s 752 mmHg 75%

    26 Septembrie, Miercuri

    Timp Temperatura Precipitaţii Vânt Presiune Umiditate
    00:00 +6°C° 0.6 mm 7 m/s 751 mmHg 79%
    01:00 +6°C° 0.6 mm 7 m/s 751 mmHg 82%
    02:00 +6°C° 0.6 mm 7 m/s 751 mmHg 86%
    03:00 +5°C° 0.1 mm 6 m/s 751 mmHg 85%
    04:00 +5°C° 0.1 mm 6 m/s 751 mmHg 85%
    05:00 +6°C° 0.1 mm 5 m/s 751 mmHg 84%
    06:00 +5°C° 0.2 mm 6 m/s 751 mmHg 83%
    07:00 +5°C° 0.2 mm 6 m/s 752 mmHg 83%
    08:00 +5°C° 0.2 mm 6 m/s 752 mmHg 82%
    09:00 +7°C° 0.1 mm 6 m/s 753 mmHg 79%
    10:00 +9°C° 0.1 mm 6 m/s 753 mmHg 75%
    11:00 +10°C° 0.1 mm 6 m/s 754 mmHg 72%
    12:00 +10°C° 0 mm 5 m/s 755 mmHg 70%
    13:00 +12°C° 0 mm 5 m/s 755 mmHg 68%
    14:00 +12°C° 0 mm 5 m/s 756 mmHg 66%
    15:00 +12°C° 0 mm 4 m/s 756 mmHg 66%
    16:00 +12°C° 0 mm 3 m/s 757 mmHg 66%
    17:00 +13°C° 0 mm 2 m/s 757 mmHg 66%
    18:00 +12°C° 0 mm 2 m/s 757 mmHg 70%
    19:00 +11°C° 0 mm 1 m/s 758 mmHg 73%
    20:00 +9°C° 0 mm 1 m/s 758 mmHg 77%
    21:00 +9°C° 0 mm 1 m/s 758 mmHg 77%
    22:00 +8°C° 0 mm 2 m/s 758 mmHg 77%
    23:00 +8°C° 0 mm 2 m/s 758 mmHg 77%

    27 Septembrie, Joi

    Timp Temperatura Precipitaţii Vânt Presiune Umiditate
    00:00 +8°C° 0 mm 3 m/s 758 mmHg 77%
    01:00 +8°C° 0 mm 3 m/s 758 mmHg 78%
    02:00 +8°C° 0 mm 3 m/s 758 mmHg 78%
    03:00 +7°C° 0 mm 4 m/s 757 mmHg 78%
    04:00 +8°C° 0 mm 4 m/s 757 mmHg 78%
    05:00 +8°C° 0 mm 4 m/s 757 mmHg 78%
    06:00 +8°C° 0 mm 5 m/s 756 mmHg 78%
    07:00 +9°C° 0 mm 5 m/s 756 mmHg 78%
    08:00 +9°C° 0 mm 6 m/s 755 mmHg 78%
    09:00 +10°C° 0 mm 6 m/s 755 mmHg 74%
    10:00 +11°C° 0 mm 6 m/s 755 mmHg 70%
    11:00 +14°C° 0 mm 7 m/s 754 mmHg 67%
    12:00 +15°C° 0 mm 7 m/s 754 mmHg 62%
    13:00 +16°C° 0 mm 7 m/s 753 mmHg 58%
    14:00 +17°C° 0 mm 7 m/s 752 mmHg 53%
    15:00 +17°C° 0 mm 7 m/s 751 mmHg 55%
    16:00 +16°C° 0 mm 6 m/s 751 mmHg 57%
    17:00 +16°C° 0 mm 5 m/s 750 mmHg 58%
    18:00 +15°C° 0 mm 5 m/s 750 mmHg 60%
    19:00 +14°C° 0 mm 5 m/s 750 mmHg 61%
    20:00 +13°C° 0 mm 5 m/s 749 mmHg 63%
    21:00 +13°C° 0 mm 6 m/s 749 mmHg 62%
    22:00 +13°C° 0 mm 6 m/s 748 mmHg 61%
    23:00 +13°C° 0 mm 6 m/s 748 mmHg 60%
    Arată mai mult